DMSP 5D-2 F11 DEB, 28345

Orbit data source: Space-Track

DMSP 5D-2 F11 DEB, 28345 is space debris in SSO originally from a launch on Thu, 28 Nov 1991 UTC launched from the Air Force Western Test Range (AFWTR). Debris objects in space refer to the collection of defunct objects orbiting the Earth. Examples of debris include non-operational satellites, rocket bodies, and fragments generated from explosions, collisions, or faulty payload assembly.

Loading next visibility...
Identifier
28345, 1991-082BJ
Orbit
SSO
Country
Flag of USUS
Related business
Manufacturer
Unknown
Mission
Spacecraft
Bus & Motor
Unknown
Mass
Unknown
Launch date (UTC)
1991-11-28 (35 years ago)
Launch vehicle
Unknown
Launch site
Air Force Western Test Range (AFWTR)
Object type
Payload
Rocket body
Debris
Shape & HBR
Unknown shape, 0.1 m
Radar Cross Section
Small (<0.1 m²)

Expand to show TLE details & history
Last TLE update: 9 hours ago

TLE from 9 hours ago
0 DMSP 5D-2 F11 DEB
1 28345U 91082BJ  26208.76497228  .00040760  00000-0  59546-2 0  9993
2 28345  98.6127 319.1400 0046026 127.1901 233.3521 14.74835732135523
Epoch: 2026-07-27T18:21Z
TLE epoch observation values (Epoch: 2026-07-27T18:21:33.604Z)
Latitude
-0.00006°
Longitude
98.30613°
Altitude
668.061 km
Speed
7.513 km/s
True Right ascension
21h 16m 33s
True Declination
0° 00' 00"
Sunlit
Object was in full shadow at epoch
Visualization orbit readout
Latitude
Unknown
Longitude
Unknown
Altitude
Unknown
Speed
Unknown
Apparent Right ascension
Unknown
Apparent Declination
Unknown
Sunlit
N/A
Visualization observer readout
Local Sidereal Time
17:12:38
Azimuth
Unknown
Elevation
Unknown
Doppler factor
Unknown
Orbital elements
Apogee altitude
675.068 km
Perigee altitude
610.439 km
Semi-major axis
7,020.891 km
Eccentricity
0.0046
Inclination
98.6127°
RAAN
319.14°
Arg. of periapsis
127.1901°
True anomaly
232.93039°
Mean anomaly
233.3521°
Eccentric anomaly
233.1411°
Mean motion
3.68939 °/min
Orbital period
97.58 mins
BSTAR
0.0059546
Loading maneuver chart data...
Computing Atmospheric mass density...

Documentation

Showing up to 5 results
|